Location: Degersen
(52.2871°N, 9.5716°E)
Time: 23:58:09
(UTC+00:00)

COBE Rocket - Pass Details

Date: 20 January 2026
Orbit: 675 x 773 km, 97.1° (Epoch: 18 February)

Event Time Altitude Azimuth Distance (km) Brightness Sun altitude
Rises 06:32:59 0° 171° (S) 3,168 7.7 -7.0°
Reaches altitude 10° 06:35:15 10° 173° (S) 2,263 6.9 -6.7°
Maximum altitude 06:40:15 73° 258° (WSW) 799 4.0 -6.0°
Drops below altitude 10° 06:45:24 10° 344° (NNW) 2,323 6.1 -5.3°
Sets 06:47:45 0° 346° (NNW) 3,260 6.9 -5.0°
